Location: Newark
(58.9986°N, 38.5006°E)
Time: 08:44:56
(UTC+00:00)

Explorer 7 - Pass Details

Date: 25 April 2021
Orbit: 484 x 677 km, 50.3° (Epoch: 11 May)

Event Time Altitude Azimuth Distance (km) Brightness Sun altitude
Rises 19:21:08 0° 260° (W) 2,694 10.6 -13.4°
Reaches altitude 10° 19:23:39 10° 245° (WSW) 1,836 9.5 -13.5°
Maximum altitude 19:26:55 22° 193° (SSW) 1,267 8.2 -13.7°
Enters shadow 19:27:52 21° 174° (S) 1,338 8.2 -13.8°
